GW5249 Weather Reports


time (UTC)temp
C
wind
direction
speed
KPH
gust
KPH
rain 1hr
cm
rain 24hr
cm
rain mn
cm
humidity
%
barometer
mb
20260504081639 6 3 0.0 0.0 0.00 0.05 0.05 99 1013.3
20260504081135 6 3 0.0 0.0 0.00 0.05 0.05 99 1013.6
20260504080632 6 3 0.0 0.0 0.00 0.05 0.05 99 1013.5
20260504080128 6 3 0.0 0.0 0.00 0.05 0.05 99 1013.6
20260504050444 7 3 0.0 0.0 0.00 0.05 0.05 97 1014.8
20260504045941 7 3 0.0 0.0 0.18 0.05 0.05 97 1014.8
20260504045437 7 3 1.6 1.6 0.18 0.05 0.05 96 1015.0
20260504044933 7 3 0.0 0.0 0.00 0.03 0.03 96 1015.0
20260504044431 7 3 0.0 0.0 0.00 0.03 0.03 95 1015.3
20260504043928 7 3 0.0 0.0 0.13 0.03 0.03 92 1015.4
20260504043425 7 3 0.0 0.0 0.00 0.00 0.00 89 1015.2
20260504042923 8 3 0.0 0.0 0.00 0.00 0.00 87 1015.5
20260504042419 8 267 0.0 0.0 0.00 0.00 0.00 83 1015.1
20260504041916 8 220 0.0 0.0 0.00 0.00 0.00 81 1015.1
20260504041412 8 220 0.0 0.0 0.00 0.00 0.00 81 1014.9
20260504040908 8 220 0.0 0.0 0.00 0.00 0.00 81 1014.8
20260504040406 8 220 0.0 0.0 0.00 0.00 0.00 80 1014.6
20260504035901 8 220 0.0 0.0 0.00 0.00 0.00 81 1015.0
20260504035359 8 220 0.0 0.0 0.00 0.00 0.00 82 1014.4
20260504034855 8 220 0.0 0.0 0.00 0.00 0.00 81 1014.7
20260504034353 8 220 0.0 0.0 0.00 0.00 0.00 81 1014.7
20260504033850 7 220 0.0 0.0 0.00 0.00 0.00 81 1014.8
20260504033348 7 220 0.0 0.0 0.00 0.00 0.00 80 1014.4
20260504032844 7 220 0.0 0.0 0.00 0.00 0.00 81 1014.7
20260504032341 7 220 0.0 0.0 0.00 0.00 0.00 80 1014.5
20260504031838 7 220 0.0 0.0 0.00 0.00 0.00 80 1014.7
20260504031335 7 220 0.0 0.0 0.00 0.00 0.00 80 1014.6
20260504030831 7 220 0.0 0.0 0.00 0.00 0.00 80 1014.7
20260504030329 7 220 0.0 0.0 0.00 0.00 0.00 80 1014.5
20260504025825 7 220 0.0 0.0 0.00 0.00 0.00 80 1014.6
20260504025322 7 220 0.0 0.0 0.00 0.00 0.00 81 1014.7
20260504024819 7 220 0.0 0.0 0.00 0.00 0.00 81 1014.6
20260504024315 7 220 0.0 0.0 0.00 0.00 0.00 80 1014.6
20260504023812 7 220 0.0 0.0 0.00 0.00 0.00 79 1014.8
20260504023309 7 220 0.0 0.0 0.00 0.00 0.00 78 1014.5
20260504022805 7 220 0.0 0.0 0.00 0.00 0.00 78 1014.4
20260504022301 7 220 0.0 0.0 0.00 0.00 0.00 78 1014.4
20260504021758 7 220 0.0 0.0 0.00 0.00 0.00 77 1014.5
20260504021256 7 220 0.0 0.0 0.00 0.00 0.00 77 1014.5
20260504020752 7 220 0.0 0.0 0.00 0.00 0.00 79 1014.2
20260504020249 7 220 0.0 0.0 0.00 0.00 0.00 77 1014.3
20260504015745 7 220 0.0 0.0 0.00 0.00 0.00 75 1014.3
20260504015242 7 220 0.0 0.0 0.00 0.00 0.00 73 1014.3
20260504014737 7 220 0.0 0.0 0.00 0.00 0.00 77 1014.5
20260504014234 8 220 0.0 0.0 0.00 0.00 0.00 73 1014.2
20260504013732 8 220 0.0 0.0 0.00 0.00 0.00 74 1014.5
20260504013229 8 220 0.0 0.0 0.00 0.00 0.00 72 1014.4
20260504012726 8 220 0.0 0.0 0.00 0.00 0.00 70 1014.5
20260504012224 8 220 0.0 0.0 0.00 0.00 0.00 71 1014.3
20260504011720 8 220 0.0 0.0 0.00 0.00 0.00 69 1014.6
20260504011217 8 220 0.0 0.0 0.00 0.00 0.00 68 1014.2
20260504010713 9 220 0.0 0.0 0.00 0.00 0.00 66 1014.4
20260504010209 9 220 0.0 0.0 0.00 0.00 0.00 66 1014.3
20260504005705 10 220 0.0 0.0 0.00 0.00 0.00 67 1014.0
20260504005202 10 220 0.0 0.0 0.00 0.00 0.00 64 1014.2
20260504004700 10 220 0.0 0.0 0.00 0.00 0.00 66 1014.0
20260504004157 10 220 0.0 0.0 0.00 0.00 0.00 62 1014.2
20260504003653 10 220 0.0 0.0 0.00 0.00 0.00 61 1014.4
20260504003151 11 220 0.0 0.0 0.00 0.00 0.00 61 1014.1
20260504002647 11 220 0.0 0.0 0.00 0.00 0.00 57 1014.1
20260504002145 11 220 0.0 0.0 0.00 0.00 0.00 58 1014.0
20260504001643 12 220 0.0 0.0 0.00 0.00 0.00 56 1014.0
20260504001138 12 220 0.0 0.0 0.00 0.00 0.00 55 1014.1
20260504000636 12 220 0.0 0.0 0.00 0.00 0.00 57 1014.0
20260504000133 12 220 0.0 0.0 0.00 0.00 0.00 50 1013.8
20260503235631 13 220 0.0 0.0 0.00 0.00 0.00 50 1013.8
20260503235127 13 220 0.0 0.0 0.00 0.00 0.00 54 1014.1
20260503234626 13 220 0.0 0.0 0.00 0.00 0.00 50 1013.9
20260503234123 13 220 0.0 0.0 0.00 0.00 0.00 48 1014.0
20260503233620 14 220 0.0 0.0 0.00 0.00 0.00 42 1014.4
20260503233116 15 220 0.0 0.0 0.00 0.00 0.00 42 1014.1
20260503232613 15 220 0.0 0.0 0.00 0.00 0.00 36 1014.1
20260503232110 15 220 0.0 1.6 0.00 0.00 0.00 48 1014.3
20260503231608 15 149 0.0 0.0 0.00 0.00 0.00 41 1014.3
20260503231104 15 148 0.0 0.0 0.00 0.00 0.00 36 1014.4
20260503230601 15 32 3.2 3.2 0.00 0.00 0.00 35 1014.3
20260503230058 15 344 0.0 1.6 0.00 0.00 0.00 35 1014.3
20260503225555 15 355 0.0 0.0 0.00 0.00 0.00 37 1014.4
20260503225050 15 354 0.0 1.6 0.00 0.00 0.00 43 1014.6
20260503224548 15 356 0.0 0.0 0.00 0.00 0.00 34 1014.2
20260503224046 15 356 0.0 0.0 0.00 0.00 0.00 40 1014.6
20260503223544 15 157 1.6 1.6 0.00 0.00 0.00 34 1014.7
20260503223039 15 157 0.0 3.2 0.00 0.00 0.00 35 1014.5
20260503222537 15 309 3.2 4.8 0.00 0.00 0.00 34 1014.4
20260503222035 16 317 0.0 1.6 0.00 0.00 0.00 35 1014.5
20260503221533 16 318 0.0 0.0 0.00 0.00 0.00 33 1014.4
20260503221030 16 318 0.0 1.6 0.00 0.00 0.00 37 1014.5
20260503220526 15 318 1.6 3.2 0.00 0.00 0.00 34 1014.8
20260503220023 15 275 1.6 3.2 0.00 0.00 0.00 32 1014.9
20260503215520 15 226 1.6 3.2 0.00 0.00 0.00 33 1014.6
20260503215017 16 227 0.0 3.2 0.00 0.00 0.00 33 1014.7
20260503214516 16 307 3.2 4.8 0.00 0.00 0.00 32 1014.8
20260503214012 16 349 1.6 16.1 0.00 0.00 0.00 34 1014.6
20260503213511 15 345 0.0 1.6 0.00 0.00 0.00 33 1014.6
20260503213007 15 346 8.0 11.3 0.00 0.00 0.00 33 1014.9
20260503212504 16 256 0.0 1.6 0.00 0.00 0.00 33 1014.9
20260503212001 15 121 0.0 3.2 0.00 0.00 0.00 35 1014.8
20260503211458 15 223 0.0 6.4 0.00 0.00 0.00 36 1015.0
20260503210954 15 223 0.0 1.6 0.00 0.00 0.00 37 1014.8
20260503210451 15 276 3.2 4.8 0.00 0.00 0.00 33 1014.9
20260503205951 15 351 3.2 4.8 0.00 0.00 0.00 35 1015.0
20260503205448 16 250 1.6 3.2 0.00 0.00 0.00 33 1015.1
20260503204944 15 220 0.0 1.6 0.00 0.00 0.00 33 1014.9
20260503204442 15 266 0.0 4.8 0.00 0.00 0.00 34 1015.3
20260503203939 15 27 3.2 4.8 0.00 0.00 0.00 33 1015.0
20260503203437 15 11 6.4 6.4 0.00 0.00 0.00 33 1015.4
20260503202933 15 266 3.2 3.2 0.00 0.00 0.00 32 1015.5
20260503202431 15 340 3.2 6.4 0.00 0.00 0.00 37 1015.5
20260503201930 15 301 6.4 11.3 0.00 0.00 0.00 34 1015.7
20260503201426 15 225 0.0 3.2 0.00 0.00 0.00 39 1015.7
20260503200924 15 272 3.2 4.8 0.00 0.00 0.00 34 1015.7
20260503200419 15 300 3.2 6.4 0.00 0.00 0.00 35 1016.0
20260503195917 15 346 0.0 4.8 0.00 0.00 0.00 35 1015.8
20260503195414 15 235 1.6 1.6 0.00 0.00 0.00 37 1016.0
20260503194910 15 97 3.2 3.2 0.00 0.00 0.00 40 1016.0
20260503194407 15 262 0.0 3.2 0.00 0.00 0.00 32 1016.3
20260503193903 15 24 1.6 6.4 0.00 0.00 0.00 34 1016.4
20260503193358 15 233 1.6 3.2 0.00 0.00 0.00 34 1016.4
20260503192854 15 21 1.6 3.2 0.00 0.00 0.00 34 1016.6
20260503192350 14 232 0.0 3.2 0.00 0.00 0.00 40 1016.6
20260503191847 15 350 3.2 4.8 0.00 0.00 0.00 34 1016.6
20260503191344 15 302 1.6 4.8 0.00 0.00 0.00 33 1016.5
20260503190840 15 83 1.6 4.8 0.00 0.00 0.00 41 1016.9
20260503190338 15 171 0.0 3.2 0.00 0.00 0.00 37 1017.3
20260503185835 15 169 1.6 4.8 0.00 0.00 0.00 37 1017.1
20260503185331 14 245 1.6 4.8 0.00 0.00 0.00 36 1017.4
20260503184826 15 340 3.2 3.2 0.00 0.00 0.00 37 1017.3
20260503184322 15 210 3.2 9.7 0.00 0.00 0.00 34 1017.3
20260503183818 14 348 4.8 6.4 0.00 0.00 0.00 37 1017.4
20260503183315 15 64 1.6 3.2 0.00 0.00 0.00 37 1017.5
20260503182813 15 350 1.6 4.8 0.00 0.00 0.00 33 1017.5
20260503182312 15 289 1.6 3.2 0.00 0.00 0.00 33 1017.8
20260503181809 14 235 1.6 4.8 0.00 0.00 0.00 35 1017.9
20260503181306 14 77 0.0 4.8 0.00 0.00 0.00 42 1017.9
20260503180802 15 63 1.6 3.2 0.00 0.00 0.00 37 1017.9
20260503180300 15 221 3.2 12.9 0.00 0.00 0.00 34 1017.9
20260503175755 15 242 4.8 6.4 0.00 0.00 0.00 33 1017.8
20260503175254 15 208 1.6 4.8 0.00 0.00 0.00 35 1018.1
20260503174749 15 224 0.0 4.8 0.00 0.00 0.00 35 1017.9
20260503174248 15 268 0.0 4.8 0.00 0.00 0.00 36 1018.2
20260503173748 15 138 1.6 6.4 0.00 0.00 0.00 39 1017.9
20260503173244 16 238 3.2 4.8 0.00 0.00 0.00 33 1018.1
20260503172741 15 52 3.2 3.2 0.00 0.00 0.00 39 1017.9
20260503172238 15 253 1.6 3.2 0.00 0.00 0.00 38 1018.2
20260503171734 14 218 1.6 3.2 0.00 0.00 0.00 36 1018.2
20260503171232 13 260 3.2 4.8 0.00 0.00 0.00 40 1018.5
20260503170729 15 273 3.2 4.8 0.00 0.00 0.00 35 1018.7
20260503170225 14 248 0.0 3.2 0.00 0.00 0.00 38 1018.6
20260503160147 13 289 1.6 4.8 0.00 0.00 0.00 44 1019.4
20260503150617 11 146 3.2 3.2 0.00 0.00 0.00 48 1019.8
20260503150113 11 272 3.2 3.2 0.00 0.00 0.00 52 1019.9
20260503131007 5 217 0.0 1.6 0.00 0.00 0.00 87 1020.1
20260503130504 4 217 0.0 0.0 0.00 0.00 0.00 88 1020.2
20260503110355 -1 216 0.0 0.0 0.00 0.00 0.00 99 1018.7